This is the latest recevied weather packets stored in our database for station/object K7KAR-2. If no packets are shown the sender has not sent any weather packets the latest 10 day(s).
| Time | Temp. | Humidity | Pressure | Rain* | Wind** | Luminosity | Snow |
|---|---|---|---|---|---|---|---|
| 1787794177 | 28.89° C | 26% | 1017.5 hPa | 0 mm | - | 31 W/m² | - |
| 1787793873 | 28.89° C | 26% | 1017.7 hPa | 0 mm | - | 35 W/m² | - |
| 1787793568 | 29.44° C | 26% | 1017.5 hPa | 0 mm | - | 38 W/m² | - |
| 1787793263 | 29.44° C | 25% | 1017.4 hPa | 0 mm | - | 40 W/m² | - |
| 1787792958 | 29.44° C | 25% | 1017.8 hPa | 0 mm | - | 43 W/m² | - |
| 1787792653 | 30° C | 25% | 1017.5 hPa | 0 mm | - | 44 W/m² | - |
| 1787792350 | 29.44° C | 25% | 1017.7 hPa | 0 mm | - | 46 W/m² | - |
| 1787792050 | 30° C | 25% | 1017.5 hPa | 0 mm | - | 49 W/m² | - |
| 1787791748 | 30° C | 25% | 1017.5 hPa | 0 mm | - | 52 W/m² | - |
| 1787791444 | 30.56° C | 24% | 1017.6 hPa | 0 mm | - | 52 W/m² | - |
| 1787791139 | 30.56° C | 24% | 1017.2 hPa | 0 mm | - | 49 W/m² | - |
| 1787790835 | 30.56° C | 24% | 1017.5 hPa | 0 mm | - | 48 W/m² | - |
| 1787790535 | 31.11° C | 23% | 1017.4 hPa | 0 mm | - | 55 W/m² | - |
| 1787790230 | 31.67° C | 22% | 1017.5 hPa | 0 mm | - | 70 W/m² | - |
| 1787789925 | 32.22° C | 22% | 1017.8 hPa | 0 mm | - | 112 W/m² | - |
| 1787789625 | 32.22° C | 21% | 1017.4 hPa | 0 mm | - | 163 W/m² | - |
| 1787789319 | 32.22° C | 21% | 1017.5 hPa | 0 mm | - | 202 W/m² | - |
| 1787789014 | 32.78° C | 21% | 1017.7 hPa | 0 mm | - | 228 W/m² | - |
| 1787788712 | 32.22° C | 21% | 1017.6 hPa | 0 mm | - | 258 W/m² | - |
| 1787788412 | 32.22° C | 21% | 1017.6 hPa | 0 mm | - | 290 W/m² | - |
| 1787788107 | 32.22° C | 21% | 1017.7 hPa | 0 mm | - | 202 W/m² | - |
| 1787787802 | 32.22° C | 21% | 1017.6 hPa | 0 mm | - | 324 W/m² | - |
| 1787787500 | 31.67° C | 22% | 1017.6 hPa | 0 mm | - | 254 W/m² | - |
| 1787787195 | 31.67° C | 22% | 1017.5 hPa | 0 mm | - | 151 W/m² | - |
| 1787786895 | 31.67° C | 22% | 1017.8 hPa | 0 mm | - | 147 W/m² | - |
* Rain latest hour (hover to see other rain measurements)
** Current wind speed in m/s (hover to see current wind gust speed)